User: anonymous   Login
Location: Wildcat Hills Observatory
(41.6350°N, 103.6812°W)
Time: 06:51:51
(UTC-06:00)
Language:

Cosmos 1634 Rocket - Orbit

View from above orbital plane
View from above orbital plane
View from above satellite
View from above satellite

Ground track
Ground track

The orbit data is extracted from the following two-line orbital elements,

1 15598U 85022B   15108.78236578  .00000159  00000-0  14625-3 0  9992
2 15598 082.9376 334.5936 0022649 156.5279 250.7525 13.76512754511729
Epoch (UTC): 18 April 2015 18:46:36
Eccentricity: 0.0022649
inclination: 82.9376°
perigee height: 959 km
apogee height: 993 km
right ascension of ascending node: 334.5936°
argument of perigee: 156.5279°
revolutions per day: 13.76512754
mean anomaly at epoch: 250.7525°
orbit number at epoch: 51172

The dashed part of the orbit path shows where the satellite is in the earth's shadow,  

DLR